Regional Weather Roundup
Issued by NWS Sterling, VA

Home | Current Version | Previous Version | Graphics & Text | Print | Product List | Glossary On
Versions: 1 2 3 4 5 6 7 8 9 10 11 12 13 14 15 16 17 18 19 20 21 22 23 24 25 26 27 28 29 30 31 32 33 34 35 36 37 38 39 40 41 42 43 44 45 46 47 48 49 50
000
ASUS41 KLWX 020910
RWRLWX

REGIONAL WEATHER ROUNDUP
NATIONAL WEATHER SERVICE BALTIMORE MD/WASHINGTON DC
400 AM EST MON MAR 02 2015

Note: "FAIR" indicates few or no clouds below 12,000 feet
with no significant weather and/or obstructions to visibility.
 TC=TEMPERATURE CELSIUS

 * =Non NWS site. Station does not report precipitation (e.g. rain,
    snow, etc.), thunder, or fog.

DCZ001-MDZ009-015-VAZ040>042-051-053>054-021000-
WASHINGTON METRO

CITY           SKY/WX    TMP DP  RH WIND       PRES   REMARKS
WASHINGTON NAT FOG       34  30  86 S8        30.10F VSB 1/2 WCI  27
DULLES         FOG       31  30  96 S5        30.08F VSB 1/4
ANDREWS AFB    FOG       32  32 100 CALM      30.08S VSB 1/2
FT BELVOIR     FOG       32  31  97 CALM      30.10R VSB 1/4
QUANTICO       CLOUDY    33  30  88 CALM      30.11R FOG
COLLEGE PARK*  CLOUDY    32  32 100 CALM      30.08F
LEESBURG*      CLOUDY    32  32 100 CALM      30.08F FOG
MANASSAS*      CLOUDY    34  34 100 CALM      30.08F VSB 1/2
GAITHERSBURG*  CLOUDY    30  28  93 CALM      30.10S VSB 3/4

$$

MDZ006>007-011-014-021000-
BALTIMORE METRO

CITY           SKY/WX    TMP DP  RH WIND       PRES   REMARKS
BWI AIRPORT    CLOUDY    32  31  96 CALM      30.07F FOG
MD SCIENCE CTR   N/A      1 N/A N/A MISG      30.08F
MARTIN STATE   CLOUDY    32  32 100 CALM      30.11S FOG
ANNAPOLIS      CLOUDY    32  31  96 MISG      30.08F FOG
FORT MEADE*    CLOUDY    32  32 100 CALM      30.10F VSB 1

$$

MDZ012-015-019>023-021000-
MARYLAND EASTERN SHORE

CITY           SKY/WX    TMP DP  RH WIND       PRES   REMARKS
OCEAN CITY     CLOUDY    32  32 100 SW6       30.09F FOG
SALISBURY      FOG       35  32  88 W7        30.10S VSB 3/4
BAY BRIDGE AP* FOG       32  32 100 CALM      30.09F VSB 1/2
EASTON*        FOG       33  33 100 SW3       30.12F VSB 1/4

$$

MDZ017>025-021000-
SOUTHERN MARYLAND

CITY           SKY/WX    TMP DP  RH WIND       PRES   REMARKS
PATUXENT RIVER FOG       32  31  96 SW3       30.08F VSB 1
ST INIGOES     CLOUDY    33  30  88 CALM      30.08F FOG
LEONARDTOWN*   CLOUDY    32  32 100 W5        30.11F VSB 3/4

$$

MDZ003>005-021000-
NORTH CENTRAL MARYLAND

CITY           SKY/WX    TMP DP  RH WIND       PRES   REMARKS
FREDERICK*     CLOUDY    32  28  86 CALM      30.10F FOG
HAGERSTOWN APT CLOUDY    31  28  89 CALM      30.06F FOG
WESTMINSTER*   CLOUDY    30  28  93 CALM      30.04F FOG

$$

MDZ501>502-021000-
WESTERN MARYLAND

CITY           SKY/WX    TMP DP  RH WIND       PRES   REMARKS
OAKLAND*       FOG       30 N/A N/A W9G21     30.04S VSB 1   WCI  22
CUMBERLAND*    MOCLDY    34  34 100 CALM      30.11S

$$

VAZ025>031-021000-
SHENANDOAH VALLEY

CITY           SKY/WX    TMP DP  RH WIND       PRES   REMARKS
WINCHESTER*    CLOUDY    32  28  86 CALM      30.06S FOG
FRONT ROYAL*   PTSUNNY   28  28 100 CALM      30.05F
LURAY*         CLOUDY    36  36 100 CALM      30.04F
NEW MARKET*    PTSUNNY   33  32  96 CALM      30.05S
STAUNTON*      PTCLDY    42  38  85 S7        30.07S
WAYNESBORO*    CLOUDY    45  40  83 SW5       30.07S

$$

WVZ021-048>050-054>055-021000-
EASTERN WEST VIRGINIA PANHANDLE

CITY           SKY/WX    TMP DP  RH WIND       PRES   REMARKS
MARTINSBURG    CLOUDY    32  29  88 CALM      30.07F FOG
PETERSBURG*    NOT AVBL

$$

VAZ036>039-050-021000-
CENTRAL FOOTHILLS

CITY           SKY/WX    TMP DP  RH WIND       PRES   REMARKS
CHARLOTTESVILL MOCLDY    32  31  96 S8        30.07S FOG     WCI  25
CULPEPER*      FOG       34  34 100 CALM      30.08F VSB 1/2
ORANGE*        FOG       34  34 100 S5        30.10R VSB 3/4
GORDONSVILLE*  CLOUDY    32  32  99 SW6       30.08S FOG
WARRENTON*     FOG       33  33 100 CALM      30.08R VSB 1/4

$$

VAZ055>057-021000-
NORTH AND CENTRAL PIEDMONT

CITY           SKY/WX    TMP DP  RH WIND       PRES   REMARKS
FREDERICKSBRG* CLOUDY    34  34 100 CALM      30.09S FOG
STAFFORD*      FOG       32  32 100 CALM      30.13S VSB 1/2

$$

NCZ024-NYZ072-PAZ021-071-VAZ022-071-021000-
OTHER REGIONAL OBSERVATIONS

CITY           SKY/WX    TMP DP  RH WIND       PRES   REMARKS
NEW YORK CITY  CLOUDY    30  24  78 W6        30.06F
PHILADELPHIA   CLOUDY    32  30  92 SW5       30.09F FOG
PITTSBURGH     FLURRIES  27  23  85 NW17      30.19R WCI  14
ROANOKE        CLOUDY    46  42  86 W15       30.15F
RICHMOND       FOG       34  32  93 SW7       30.13R VSB 1/8
RALEIGH        FOG       36  34  92 SW7       30.17F VSB 1/4

$$

ANZ530>537-021000-
MARINE OBSERVATIONS

STATION/POSITION TIME  TEMP    WIND        PRES
                       AIR SEA DIR/SP/G
                 (UTC) (F)     (DEG/KT/KT) (MB)
THOMAS PT LIGHT  0900   31 31     CALM     1019.5F
BALT KEY BRIDGE  0800   32                 1019.4F
COVE POINT       0800   32                 1020.0F
LEWISETTA        0800   33 33              1019.6F
SOLOMONS ISLAND  0800      32                N/A

$$



USA.gov is the U.S. government's official web portal to all federal, state and local government web resources and services.